TimeEST,TemperatureF,Dew PointF,Humidity,Sea Level PressureIn,VisibilityMPH,Wind Direction,Wind SpeedMPH,Gust SpeedMPH,PrecipitationIn,Events,Conditions,WindDirDegrees,DateUTC
12:15 AM,20.1,-5.4,32,30.15,10.0,SSW,8.1,-,N/A,,Clear,210,2014-01-25 05:15:00
12:35 AM,20.7,-5.3,32,30.14,10.0,SW,5.8,-,N/A,,Clear,220,2014-01-25 05:35:00
12:55 AM,19.6,-5.1,34,30.13,10.0,SSW,6.9,-,N/A,,Clear,210,2014-01-25 05:55:00
1:15 AM,19.0,-4.9,35,30.11,10.0,South,5.8,-,N/A,,Clear,190,2014-01-25 06:15:00
1:35 AM,18.9,-4.0,36,30.11,10.0,South,4.6,-,N/A,,Clear,190,2014-01-25 06:35:00
1:55 AM,18.9,-4.0,36,30.10,10.0,SSW,4.6,-,N/A,,Clear,200,2014-01-25 06:55:00
2:15 AM,19.8,-4.9,34,30.08,10.0,SW,5.8,-,N/A,,Clear,220,2014-01-25 07:15:00
2:35 AM,20.7,-4.4,33,30.07,10.0,SSW,5.8,-,N/A,,Clear,210,2014-01-25 07:35:00
2:55 AM,20.3,-4.4,34,30.05,10.0,SW,9.2,16.1,N/A,,Clear,220,2014-01-25 07:55:00
3:15 AM,20.7,-4.5,33,30.03,10.0,SW,9.2,-,N/A,,Clear,220,2014-01-25 08:15:00
3:35 AM,20.7,-4.4,33,30.02,10.0,SW,9.2,17.3,N/A,,Clear,220,2014-01-25 08:35:00
3:55 AM,20.5,-4.4,33,30.00,10.0,SW,6.9,-,N/A,,Clear,220,2014-01-25 08:55:00
4:15 AM,20.7,-4.2,34,29.99,10.0,SW,5.8,-,N/A,,Clear,230,2014-01-25 09:15:00
4:35 AM,20.5,-4.2,34,29.97,10.0,SW,9.2,16.1,N/A,,Clear,230,2014-01-25 09:35:00
4:55 AM,20.3,-4.2,34,29.97,10.0,SW,6.9,-,N/A,,Clear,230,2014-01-25 09:55:00
5:15 AM,20.7,-3.6,34,29.96,10.0,SW,9.2,16.1,N/A,,Clear,220,2014-01-25 10:15:00
5:35 AM,20.7,-3.5,35,29.94,10.0,SW,5.8,-,N/A,,Clear,220,2014-01-25 10:35:00
5:55 AM,20.8,-3.1,35,29.93,10.0,SSW,5.8,-,N/A,,Clear,210,2014-01-25 10:55:00
6:15 AM,20.8,-2.4,36,29.91,10.0,SW,8.1,-,N/A,,Clear,220,2014-01-25 11:15:00
6:35 AM,21.2,-2.2,36,29.91,10.0,SW,5.8,-,N/A,,Clear,230,2014-01-25 11:35:00
6:55 AM,21.4,-1.7,37,29.91,10.0,SW,5.8,-,N/A,,Clear,220,2014-01-25 11:55:00
7:15 AM,21.7,-1.5,36,29.90,10.0,SW,8.1,-,N/A,,Scattered Clouds,230,2014-01-25 12:15:00
7:35 AM,21.9,-0.9,37,29.89,10.0,SW,10.4,16.1,N/A,,Overcast,230,2014-01-25 12:35:00
7:55 AM,22.5,-0.4,37,29.88,10.0,SW,6.9,-,N/A,,Overcast,220,2014-01-25 12:55:00
8:15 AM,22.5,-0.2,37,29.88,10.0,SW,5.8,-,N/A,,Overcast,230,2014-01-25 13:15:00
8:35 AM,22.8,0.1,37,29.85,10.0,SSW,5.8,-,N/A,,Overcast,210,2014-01-25 13:35:00
8:55 AM,23.5,0.3,37,29.84,10.0,SSW,3.5,-,N/A,,Overcast,210,2014-01-25 13:55:00
9:15 AM,24.4,0.3,35,29.83,10.0,SW,5.8,-,N/A,,Scattered Clouds,230,2014-01-25 14:15:00
9:35 AM,25.5,0.7,34,29.81,10.0,SW,6.9,-,N/A,,Scattered Clouds,230,2014-01-25 14:35:00
9:55 AM,26.2,0.5,33,29.81,10.0,WSW,6.9,17.3,N/A,,Scattered Clouds,240,2014-01-25 14:55:00
10:15 AM,27.0,0.7,32,29.79,10.0,SSW,6.9,17.3,N/A,,Mostly Cloudy,210,2014-01-25 15:15:00
10:35 AM,28.2,0.9,31,29.77,10.0,SW,13.8,20.7,N/A,,Overcast,220,2014-01-25 15:35:00
10:55 AM,29.7,1.4,30,29.76,10.0,SSW,10.4,21.9,N/A,,Overcast,210,2014-01-25 15:55:00
11:15 AM,30.6,1.8,29,29.73,10.0,SSW,8.1,-,N/A,,Overcast,210,2014-01-25 16:15:00
11:35 AM,30.7,1.6,29,29.73,10.0,WSW,9.2,17.3,N/A,,Overcast,240,2014-01-25 16:35:00
11:55 AM,31.1,1.6,28,29.72,10.0,West,9.2,-,N/A,,Overcast,260,2014-01-25 16:55:00
12:15 PM,31.8,2.1,28,29.70,10.0,West,5.8,-,N/A,,Overcast,260,2014-01-25 17:15:00
12:35 PM,31.8,2.3,29,29.69,10.0,WSW,8.1,-,N/A,,Overcast,240,2014-01-25 17:35:00
12:55 PM,33.1,3.0,28,29.68,10.0,WSW,5.8,-,N/A,,Overcast,250,2014-01-25 17:55:00
1:15 PM,34.3,3.0,27,29.66,10.0,West,4.6,-,N/A,,Overcast,260,2014-01-25 18:15:00
1:35 PM,35.1,3.2,26,29.65,10.0,West,6.9,-,N/A,,Overcast,260,2014-01-25 18:35:00
1:55 PM,36.7,4.1,26,29.64,10.0,West,6.9,-,N/A,,Overcast,260,2014-01-25 18:55:00
2:15 PM,35.2,6.4,30,29.64,10.0,WSW,10.4,16.1,N/A,,Overcast,240,2014-01-25 19:15:00
2:35 PM,35.8,9.1,33,29.63,10.0,SW,9.2,-,N/A,,Overcast,230,2014-01-25 19:35:00
2:55 PM,38.7,11.3,33,29.63,10.0,WSW,12.7,19.6,N/A,,Overcast,250,2014-01-25 19:55:00
3:15 PM,37.6,13.1,37,29.63,10.0,West,6.9,20.7,N/A,,Overcast,270,2014-01-25 20:15:00
3:35 PM,36.5,13.1,38,29.63,10.0,West,6.9,-,N/A,,Overcast,280,2014-01-25 20:35:00
3:55 PM,36.9,14.4,40,29.64,10.0,West,9.2,21.9,N/A,,Overcast,270,2014-01-25 20:55:00
4:15 PM,37.0,16.7,44,29.64,10.0,WSW,8.1,17.3,N/A,,Overcast,240,2014-01-25 21:15:00
4:35 PM,37.4,17.8,45,29.64,10.0,WSW,8.1,19.6,N/A,,Overcast,250,2014-01-25 21:35:00
4:55 PM,37.4,18.5,46,29.65,10.0,West,11.5,17.3,N/A,,Mostly Cloudy,260,2014-01-25 21:55:00
5:15 PM,36.3,18.5,48,29.66,10.0,WSW,8.1,24.2,N/A,,Mostly Cloudy,250,2014-01-25 22:15:00
5:35 PM,35.6,18.3,50,29.66,10.0,WSW,5.8,-,N/A,,Overcast,250,2014-01-25 22:35:00
5:55 PM,35.6,18.3,50,29.68,10.0,WSW,4.6,-,N/A,,Overcast,250,2014-01-25 22:55:00
6:15 PM,35.2,18.1,50,29.68,10.0,WSW,8.1,-,N/A,,Overcast,240,2014-01-25 23:15:00
6:35 PM,34.7,17.6,50,29.69,10.0,WSW,9.2,17.3,N/A,,Mostly Cloudy,240,2014-01-25 23:35:00
6:55 PM,34.3,18.0,51,29.70,10.0,WSW,9.2,-,N/A,,Mostly Cloudy,250,2014-01-25 23:55:00
7:15 PM,33.6,17.6,52,29.71,10.0,West,6.9,-,N/A,,Scattered Clouds,260,2014-01-26 00:15:00
7:35 PM,33.4,17.1,51,29.71,10.0,WSW,8.1,-,N/A,,Clear,250,2014-01-26 00:35:00
7:55 PM,32.9,16.7,51,29.71,10.0,SW,4.6,-,N/A,,Clear,220,2014-01-26 00:55:00
8:15 PM,32.0,16.7,53,29.70,10.0,SSW,5.8,-,N/A,,Scattered Clouds,210,2014-01-26 01:15:00
8:35 PM,32.5,16.7,52,29.70,10.0,SSW,4.6,-,N/A,,Mostly Cloudy,210,2014-01-26 01:35:00
8:55 PM,33.3,16.7,51,29.71,10.0,West,4.6,-,N/A,,Overcast,280,2014-01-26 01:55:00
9:15 PM,34.3,17.2,50,29.72,10.0,West,5.8,-,N/A,,Overcast,270,2014-01-26 02:15:00
9:35 PM,34.3,17.4,50,29.72,10.0,WSW,3.5,-,N/A,,Overcast,250,2014-01-26 02:35:00
9:55 PM,34.5,17.6,50,29.73,10.0,West,6.9,-,N/A,,Overcast,260,2014-01-26 02:55:00
10:15 PM,35.1,19.0,52,29.73,10.0,West,8.1,-,N/A,,Overcast,280,2014-01-26 03:15:00
10:35 PM,34.9,18.5,51,29.75,10.0,WNW,6.9,20.7,N/A,,Mostly Cloudy,290,2014-01-26 03:35:00
10:55 PM,35.2,17.6,49,29.76,10.0,WSW,6.9,26.5,N/A,,Scattered Clouds,250,2014-01-26 03:55:00
11:15 PM,34.3,17.1,49,29.78,10.0,NW,6.9,16.1,N/A,,Mostly Cloudy,310,2014-01-26 04:15:00
11:35 PM,34.2,16.7,49,29.79,10.0,WNW,8.1,18.4,N/A,,Mostly Cloudy,290,2014-01-26 04:35:00
11:55 PM,33.4,16.0,49,29.79,10.0,WNW,6.9,16.1,N/A,,Scattered Clouds,290,2014-01-26 04:55:00